Location: *
(43.9905°S, 176.4941°W)
Time: 05:48:47
(UTC+00:00)

Meteor 1-24 Rocket - Pass Details

Date: 08 December 2019
Orbit: 790 x 927 km, 81.2° (Epoch: 25 January)

Event Time Altitude Azimuth Distance (km) Brightness Sun altitude
Rises 09:09:35 0° 186° (S) 3,582 8.1 -15.2°
Reaches altitude 10° 09:12:10 10° 180° (S) 2,646 7.1 -15.4°
Maximum altitude 09:18:01 47° 106° (ESE) 1,218 4.4 -16.0°
Enters shadow 09:21:23 24° 44° (NE) 1,816 4.8 -16.4°
